|
NORAD ID: 21904 Int'l Code: 1991-015E
Perigee: 35,150.9 km
Apogee: 36,505.3 km
Inclination: 13.7 °
Period: 1,437.9 minutes
Semi major axis: 42199 km
Launch date: March 2, 1991
Source: European Space Agency (ESA)
Two Line Element Set (TLE):
1 21904U 91015E 13139.52418098 -.00000327 00000-0 00000+0 0 6546
2 21904 013.6675 021.0287 0160475 102.9447 258.8047 01.00149317 68651
Source:
NASA's NSSDC Master Catalog entry for METEOSAT 5 AKM
|